Location: Ch�ze
(42.9000°N, 0.0333°W)
Time: 18:59:20
(UTC+00:00)

H-2A R/B - Pass Details

Date: 24 January 2021
Orbit: 576 x 656 km, 98.5° (Epoch: 08 March)

Event Time Altitude Azimuth Distance (km) Brightness Sun altitude
Rises 17:57:35 0° 7° (N) 2,959 5.3 -10.2°
Reaches altitude 10° 17:59:53 10° 2° (N) 2,034 4.5 -10.6°
Maximum altitude 18:04:06 45° 289° (WNW) 853 3.2 -11.4°
Drops below altitude 10° 18:08:12 10° 217° (SW) 1,974 5.5 -12.1°
Sets 18:10:25 0° 211° (SSW) 2,861 6.2 -12.5°
